Location: Göttingen
(51.5413°N, 9.9158°E)
Time: 17:42:18
(UTC+02:00)

EO-88 - Pass Details

Date: 05 July 2022
Orbit: 453 x 461 km, 97.3° (Epoch: 14 August)

Event Time Altitude Azimuth Distance (km) Brightness Sun altitude
Exits shadow 23:21:53 - 200° (SSW) 1,895 ? -11.0°
Reaches altitude 10° 23:22:38 10° 206° (SSW) 1,623 ? -11.0°
Maximum altitude 23:25:37 26° 265° (W) 953 ? -11.3°
Drops below altitude 10° 23:28:37 10° 324° (NW) 1,632 ? -11.5°
Sets 23:30:55 0° 338° (NNW) 2,512 ? -11.6°
